Location: Argonnex
(45.9500°N, 6.1333°E)
Time: 10:22:38
(UTC+00:00)

Cosmos 2266 Rocket - Pass Details

Date: 27 September 2023
Orbit: 933 x 1008 km, 82.9° (Epoch: 10 December)

Event Time Altitude Azimuth Distance (km) Brightness Sun altitude
Exits shadow 02:48:02 34° 166° (SSE) 1,557 4.9 -27.5°
Maximum altitude 02:50:50 69° 94° (E) 1,062 4.2 -27.1°
Drops below altitude 10° 02:57:11 10° 13° (NNE) 2,784 6.9 -26.1°
Sets 02:59:45 0° 11° (N) 3,744 7.6 -25.8°
